ATLAS V CENTAUR R/B, 41329

Orbit data source: Space-Track

ATLAS V CENTAUR R/B, 41329 is space debris in MEO originally from a launch on Fri, 05 Feb 2016 UTC launched from the Air Force Eastern Test Range (AFETR). Debris objects in space refer to the collection of defunct objects orbiting the Earth. Examples of debris include non-operational satellites, rocket bodies, and fragments generated from explosions, collisions, or faulty payload assembly.

Loading next visibility...
ATLAS V CENTAUR R/B details
Identifier
41329, 2016-007B
Orbit
MEO
Last TLE update19 hours ago
Origin
Flag of USULA (US)
ManufacturerLMSS Denver
MissionSpacecraft
Bus & MotorCENTAUR SEC, RL10C-1
Mass~2,020 kg wet, 2,020 kg dry
Launch date (UTC)
2016-02-05 (9 years ago)
Launch vehicleUnknown
Launch site
Air Force Eastern Test Range (AFETR)
Object type
Payload
Rocket body
Debris
Shape & HBRCyl + 1 Nozzle, 11.7 m
Radar Cross Section32.260 m², Large (>1 m²)

Expand to show TLE details & history

TLE from 19 hours ago
0 ATLAS V CENTAUR R/B
1 41329U 16007B   24360.81055265  .00000018  00000-0  00000-0 0  9999
2 41329  55.4654 123.1603 0114825 345.6689  13.9772  1.91799563 62285
Epoch: 2024-12-25T19:27Z
Definitive object data (Epoch: 2024-12-25T19:27:11.748Z)
Latitude-0.00002°
Longitude96.5515°
Altitude20,680.619 km
Speed3.86 km/s
True Right ascension08h 12m 35s
True Declination0° 00' 00"
Sunlit
Object was in daylight at TLE epoch
Visualization TLE readout
Latitude-11.45378°
Longitude-75.47577°
Altitude21,264.107 km
Speed3.778 km/s
Apparent Right ascension21h 23m 45s
Apparent Declination-18° 38' 10"
Sunlit
Object is in daylight
Visualization observer readout
Local Sidereal Time14:06:09
Azimuth92.761° ESE
Elevation-26.519°
Doppler factor1
Orbital elements
Apogee altitude21,299.454 km
Perigee altitude20,671.053 km
Semi-major axis27,363.39 km
Eccentricity0.0114825
Inclination55.4654°
RAAN123.1603°
Arg. of periapsis345.6689°
True anomaly14.2995°
Mean anomaly13.9772°
Eccentric anomaly14.1379°
Mean motion0.4795 °/min
BSTARUnknown
Orbital period750.78 mins
Loading maneuver chart data...
Loading historical data...
Loading historical data...
Loading historical data...
Loading historical data...
Loading historical data...
Loading historical data...
Loading historical data...
Other satellites on launch #7 in the year 2016 (2016-02-05 UTC)

ATLAS V CENTAUR R/B Visibility forecast

Observer location: undefined°, undefined

Span
Click to sort rows by Start time (UTC) header in descending order
Start Az.
Max El. time (UTC)
Max El. Az.
Max El.
End time (UTC)
End Az.
375 mins2024-12-27 07:53:15.655Z186.104° SSW2024-12-27 10:40:15.655Z107.148° ESE44.875°2024-12-27 14:08:15.655Z75.159° E
|